Weather History for Kerrville, TX

Change the Weather History Date:

Thursday, August 29, 2013

  Actual Average (KHDO) Record (KHDO)
Temperature  
Mean Temperature 84 °F -  
Max Temperature 96 °F 91 °F 107 °F (2011)
Min Temperature 71 °F 69 °F 69 °F (2010)
Cooling Degree Days 18    
Growing Degree Days 34 (Base 50)    
Moisture  
Dew Point 63 °F    
Average Humidity 58    
Maximum Humidity 91    
Minimum Humidity 25    
Precipitation  
Precipitation 0.00 in - - ()
Sea Level Pressure  
Sea Level Pressure 30.10 in    
Wind  
Wind Speed 4 mph (SSE)    
Max Wind Speed 9 mph    
Max Gust Speed 16 mph    
Visibility 10 miles    
Events      
Averages and records for this station are not official NWS values.
T = Trace of Precipitation, MM = Missing Value Source: NWS Daily Summary

Daily Weather History Graph

Daily Weather History Graph

Search for Another Location

Airport:

Trip Planner

Search our weather history database for the weather conditions in past years. The results will help you decide how hot, cold, wet, or windy it might be!

Date:

Astronomy

Aug. 29, 2013 Rise Set
Actual Time 7:11 AM CDT 8:01 PM CDT
Civil Twilight 6:47 AM CDT 8:26 PM CDT
Nautical Twilight 6:18 AM CDT 8:55 PM CDT
Astronomical Twilight 5:48 AM CDT 9:24 PM CDT
Moon 1:17 AM CDT (8/29) 3:19 PM CDT (8/29)
Length of Visible Light 13h 38m
Length of Day
12h 50m
Last Quarter, 38% of the Moon is Illuminated
Aug 29
Last Quarter
Sep 5
New
Sep 12
First Quarter
Sep 19
Full
Sep 26
Last Quarter

Hourly Weather History & Observations

Time (CDT) Temp. Heat Index Dew Point Humidity Pressure Visibility Wind Dir Wind Speed Gust Speed Precip Events Conditions
12:15 AM 77.4 °F - 66.9 °F 70% 30.12 in 10.0 mi SE 6.9 mph - N/A   Clear
12:35 AM 77.4 °F - 68.5 °F 74% 30.12 in 10.0 mi SE 6.9 mph - N/A   Clear
12:55 AM 77.7 °F - 69.3 °F 75% 30.11 in 10.0 mi SSE 8.1 mph - N/A   Clear
1:15 AM 76.5 °F - 68.9 °F 77% 30.11 in 10.0 mi SE 6.9 mph - N/A   Clear
1:35 AM 76.5 °F - 69.6 °F 79% 30.12 in 10.0 mi SSE 3.5 mph - N/A   Clear
1:55 AM 76.5 °F - 70.0 °F 80% 30.12 in 10.0 mi South 3.5 mph - N/A   Clear
2:15 AM 76.5 °F - 70.3 °F 81% 30.12 in 10.0 mi SSE 4.6 mph - N/A   Clear
2:35 AM 76.5 °F - 70.7 °F 82% 30.12 in 10.0 mi Calm Calm - N/A   Clear
2:55 AM 75.9 °F - 70.7 °F 84% 30.12 in 10.0 mi Calm Calm - N/A   Clear
3:15 AM 75.4 °F - 70.3 °F 84% 30.12 in 10.0 mi Calm Calm - N/A   Clear
3:35 AM 76.1 °F - 71.2 °F 85% 30.12 in 10.0 mi Calm Calm - N/A   Clear
3:55 AM 73.9 °F - 69.8 °F 87% 30.12 in 10.0 mi Calm Calm - N/A   Clear
4:15 AM 72.1 °F - 68.5 °F 88% 30.13 in 10.0 mi Calm Calm - N/A   Clear
4:35 AM 73.8 °F - 69.8 °F 87% 30.12 in 10.0 mi Calm Calm - N/A   Scattered Clouds
4:55 AM 73.9 °F - 69.8 °F 87% 30.12 in 10.0 mi SE 4.6 mph - N/A   Scattered Clouds
5:15 AM 72.7 °F - 69.1 °F 88% 30.12 in 10.0 mi Calm Calm - N/A   Scattered Clouds
5:35 AM 71.8 °F - 68.4 °F 89% 30.13 in 10.0 mi Calm Calm - N/A   Scattered Clouds
5:55 AM 72.7 °F - 68.9 °F 88% 30.13 in 10.0 mi Calm Calm - N/A   Scattered Clouds
6:15 AM 71.6 °F - 68.5 °F 90% 30.13 in 10.0 mi Calm Calm - N/A   Scattered Clouds
6:35 AM 71.6 °F - 68.2 °F 89% 30.13 in 10.0 mi Calm Calm - N/A   Scattered Clouds
6:55 AM 71.6 °F - 68.5 °F 90% 30.13 in 10.0 mi Calm Calm - N/A   Scattered Clouds
7:15 AM 71.6 °F - 68.5 °F 90% 30.14 in 10.0 mi Calm Calm - N/A   Clear
7:35 AM 71.6 °F - 68.9 °F 91% 30.14 in 10.0 mi Calm Calm - N/A   Clear
7:55 AM 71.6 °F - 68.9 °F 91% 30.15 in 10.0 mi Calm Calm - N/A   Clear
8:15 AM 73.9 °F - 70.9 °F 90% 30.15 in 10.0 mi Calm Calm - N/A   Clear
8:35 AM 73.9 °F - 70.3 °F 88% 30.16 in 10.0 mi Calm Calm - N/A   Clear
8:55 AM 76.5 °F - 71.8 °F 85% 30.16 in 10.0 mi Calm Calm - N/A   Clear
9:15 AM 76.5 °F - 70.3 °F 81% 30.16 in 10.0 mi Calm Calm - N/A   Clear
9:35 AM 79.2 °F - 68.0 °F 69% 30.16 in 10.0 mi SW 3.5 mph - N/A   Clear
9:55 AM 81.7 °F 84.0 °F 66.4 °F 60% 30.16 in 10.0 mi SSW 4.6 mph - N/A   Clear
10:15 AM 83.8 °F 85.1 °F 64.0 °F 51% 30.16 in 10.0 mi South 8.1 mph - N/A   Clear
10:35 AM 85.5 °F 86.6 °F 63.5 °F 48% 30.16 in 10.0 mi SSE 8.1 mph - N/A   Clear
10:55 AM 85.6 °F 86.3 °F 63.0 °F 46% 30.16 in 10.0 mi SSE 6.9 mph - N/A   Clear
11:15 AM 88.7 °F 89.8 °F 63.3 °F 43% 30.16 in 10.0 mi SSW 9.2 mph - N/A   Clear
11:35 AM 89.1 °F 89.6 °F 62.6 °F 41% 30.16 in 10.0 mi South 8.1 mph - N/A   Clear
12:15 PM 90.0 °F 90.3 °F 62.1 °F 39% 30.15 in 10.0 mi SSW 8.1 mph - N/A   Scattered Clouds
12:55 PM 91.6 °F 91.6 °F 61.0 °F 36% 30.13 in 10.0 mi SE 3.5 mph - N/A   Clear
1:15 PM 89.1 °F 88.2 °F 59.2 °F 36% 30.13 in 10.0 mi Calm Calm - N/A   Clear
1:35 PM 91.6 °F 90.1 °F 56.7 °F 31% 30.12 in 10.0 mi SE 4.6 mph - N/A   Scattered Clouds
1:55 PM 91.6 °F 90.4 °F 57.9 °F 32% 30.11 in 10.0 mi Calm Calm - N/A   Clear
2:15 PM 93.9 °F 92.6 °F 57.0 °F 29% 30.10 in 10.0 mi SSE 4.6 mph - N/A   Clear
2:35 PM 94.6 °F 93.5 °F 57.4 °F 29% 30.09 in 10.0 mi South 9.2 mph 16.1 mph N/A   Clear
2:55 PM 91.6 °F 90.1 °F 57.2 °F 31% 30.09 in 7.0 mi Calm Calm - N/A   Clear
3:15 PM 91.6 °F 90.1 °F 56.8 °F 31% 30.08 in 10.0 mi ESE 5.8 mph - N/A   Clear
3:35 PM 91.6 °F 89.8 °F 56.3 °F 30% 30.07 in 10.0 mi East 4.6 mph - N/A   Clear
3:55 PM 96.4 °F 95.0 °F 56.7 °F 26% 30.06 in 10.0 mi SSE 6.9 mph - N/A   Clear
4:15 PM 96.8 °F 95.1 °F 55.8 °F 25% 30.05 in 10.0 mi SW 5.8 mph - N/A   Clear
4:35 PM 96.8 °F 95.1 °F 55.4 °F 25% 30.04 in 10.0 mi SSW 4.6 mph - N/A   Clear
4:55 PM 94.1 °F 92.2 °F 54.9 °F 27% 30.03 in 10.0 mi SSW 5.8 mph - N/A   Clear
5:15 PM 96.8 °F 95.1 °F 55.2 °F 25% 30.02 in 10.0 mi South 3.5 mph - N/A   Clear
5:35 PM 94.5 °F 92.3 °F 55.0 °F 26% 30.02 in 10.0 mi ESE 6.9 mph 10.4 mph N/A   Scattered Clouds
5:55 PM 93.7 °F 91.7 °F 55.0 °F 27% 30.02 in 10.0 mi East 4.6 mph - N/A   Clear
6:15 PM 94.1 °F 91.9 °F 54.5 °F 26% 30.02 in 10.0 mi ESE 5.8 mph - N/A   Clear
6:35 PM 91.6 °F 89.3 °F 54.5 °F 28% 30.02 in 10.0 mi SE 6.9 mph - N/A   Clear
6:55 PM 91.6 °F 89.8 °F 56.3 °F 30% 30.02 in 10.0 mi SSE 4.6 mph - N/A   Clear
7:15 PM 91.6 °F 89.8 °F 56.3 °F 30% 30.02 in 10.0 mi SE 3.5 mph - N/A   Clear
7:35 PM 91.6 °F 90.1 °F 57.0 °F 31% 30.03 in 10.0 mi Calm Calm - N/A   Clear
7:55 PM 89.1 °F 87.5 °F 56.8 °F 33% 30.03 in 10.0 mi ESE 3.5 mph - N/A   Clear
8:15 PM 89.1 °F 88.0 °F 58.1 °F 35% 30.03 in 10.0 mi ESE 3.5 mph - N/A   Clear
8:35 PM 86.2 °F 85.2 °F 57.7 °F 38% 30.04 in 10.0 mi ESE 3.5 mph - N/A   Clear
8:55 PM 84.2 °F 83.8 °F 59.0 °F 42% 30.04 in 10.0 mi Calm Calm - N/A   Clear
9:15 PM 84.2 °F 83.7 °F 58.1 °F 41% 30.05 in 10.0 mi Calm Calm - N/A   Clear
9:35 PM 81.7 °F 82.0 °F 59.5 °F 47% 30.05 in 10.0 mi Calm Calm - N/A   Clear
9:55 PM 80.2 °F 81.6 °F 63.1 °F 56% 30.06 in 10.0 mi Calm Calm - N/A   Clear
10:15 PM 79.9 °F - 61.7 °F 54% 30.06 in 10.0 mi Calm Calm - N/A   Clear
10:35 PM 79.0 °F - 62.2 °F 56% 30.06 in 10.0 mi Calm Calm - N/A   Clear
10:55 PM 77.2 °F - 63.1 °F 62% 30.06 in 10.0 mi Calm Calm - N/A   Clear
11:15 PM 76.5 °F - 64.6 °F 67% 30.06 in 10.0 mi NNW 3.5 mph - N/A   Clear
11:35 PM 76.5 °F - 65.1 °F 68% 30.06 in 10.0 mi Calm Calm - N/A   Clear
11:55 PM 76.3 °F - 65.5 °F 69% 30.06 in 10.0 mi NNE 3.5 mph - N/A   Clear